Location: Champs
(48.8539°N, 2.6040°E)
Time: 13:42:52
(UTC+00:00)

SL-14 R/B - Pass Details

Date: 26 October 2021
Orbit: 519 x 552 km, 82.4° (Epoch: 06 December)

Event Time Altitude Azimuth Distance (km) Brightness Sun altitude
Rises 05:16:53 0° 211° (SSW) 2,674 6.6 -12.1°
Reaches altitude 10° 05:19:12 10° 221° (SW) 1,783 5.6 -11.7°
Maximum altitude 05:22:45 33° 287° (WNW) 913 3.9 -11.2°
Drops below altitude 10° 05:26:18 10° 352° (N) 1,779 5.8 -10.6°
Sets 05:28:37 0° 3° (N) 2,669 6.8 -10.2°
